Starlink 11572

operational
NORAD ID: 62990 Int'l Des: 2025-031 Owner: SPXS Country: US Constellation: starlink
LEOCIRCULAR

Über Starlink 11572

Beschreibung wird geladen...

Live-Position

3D-Globus wird geladen...

Nächste Überflüge

Höhenverlauf

Altitude vs Time

uPlot chart will show altitude changes over time

Zweizeiliger Elementsatz

1 62990U 25031K 25258.25874025 .00414471 00000-0 30590-2 0 9992
2 62990 42.9989 338.7211 0001770 255.8261 104.2410 15.70966101 35150
Epoch: 15. Sept. 2025 • Age: 15 hours

Aktueller Status

Höhe 354.7 km
Geschwindigkeit 7.70 km/s
Subsatellitenpunkt 19.81°N, 38.47°E
Startdatum 11. Feb. 2025
Alter 0.5 years
Typ internet

Technische Details

Klassifizierung Payload
Masse 960.00 kg
Trockenmasse 910.00 kg
Gesamtmasse 960.00 kg
Länge 0.30 m
Durchmesser 4.10 m
Spannweite 29.00 m
Form Box + pan
Hersteller SPXS
Bus-Typ Starlink V2MD
Phasenstatus In Orbit
Besitzer/Staat SPXS/US

Große Konstellationen

Loading constellations...